Weather History for KCXP - October, 2013

Change the Weather History Date:

Thursday, October 3, 2013

  Actual Average (KRNO) Record (KRNO)
Temperature  
Mean Temperature 47 °F 59 °F  
Max Temperature 57 °F 75 °F 90 °F (1980)
Min Temperature 37 °F 43 °F 20 °F (1973)
Degree Days  
Heating Degree Days 18 7  
Month to date heating degree days 19  
Since 1 July heating degree days 109  
Cooling Degree Days 0 1  
Month to date cooling degree days 3  
Year to date cooling degree days 837  
Moisture  
Dew Point 18 °F    
Average Humidity 34    
Maximum Humidity 52    
Minimum Humidity 17    
Precipitation  
Precipitation 0.00 in 0.02 in 0.32 in (1918)
Month to date precipitation 0.05  
Year to date precipitation 5.09  
Snow  
Snow 0.00 in 0.00 in T in (1916)
Month to date snowfall 0.0  
Since 1 July snowfall 0.1  
Since 1 September snowfall 0.1  
Snow Depth -    
Sea Level Pressure  
Sea Level Pressure 30.15 in    
Wind  
Wind Speed 11 mph (NNE)    
Max Wind Speed 17 mph    
Max Gust Speed 24 mph    
Visibility 10 miles    
Events      
T = Trace of Precipitation, MM = Missing Value Source: NWS Daily Summary

Daily Weather History Graph

Daily Weather History Graph

Search for Another Location

Airport or City:

Trip Planner

Search our weather history database for the weather conditions in past years. The results will help you decide how hot, cold, wet, or windy it might be!

Date:

Astronomy

Oct. 03, 2013 Rise Set
Actual Time 6:57 AM PDT 6:37 PM PDT
Civil Twilight 6:30 AM PDT 7:04 PM PDT
Nautical Twilight 5:59 AM PDT 7:35 PM PDT
Astronomical Twilight 5:28 AM PDT 8:06 PM PDT
Moon 5:36 AM PDT (10/3) 5:49 PM PDT (10/3)
Length of Visible Light 12h 34m
Length of Day
11h 40m
Waning Crescent, 2% of the Moon is Illuminated
Oct 3
Waning Crescent
Oct 4
New
Oct 11
First Quarter
Oct 18
Full
Oct 26
Last Quarter

Hourly Weather History & Observations

Time (PDT) Temp. Windchill Dew Point Humidity Pressure Visibility Wind Dir Wind Speed Gust Speed Precip Events Conditions
12:15 AM 48.2 °F - 19.4 °F 32% 30.04 in 10.0 mi WNW 5.8 mph - N/A   Clear
12:35 AM 48.2 °F - 23.0 °F 37% 30.03 in 10.0 mi North 9.2 mph - N/A   Clear
12:55 AM 48.2 °F - 21.2 °F 34% 30.03 in 10.0 mi NNW 9.2 mph - N/A   Clear
1:15 AM 46.4 °F 41.9 °F 21.2 °F 37% 30.03 in 10.0 mi North 9.2 mph - N/A   Clear
1:35 AM 48.2 °F - 23.0 °F 37% 30.05 in 10.0 mi NNW 12.7 mph - N/A   Clear
1:55 AM 46.4 °F 41.5 °F 23.0 °F 40% 30.05 in 10.0 mi NNW 10.4 mph - N/A   Clear
2:15 AM 46.4 °F 41.5 °F 23.0 °F 40% 30.05 in 10.0 mi NNW 10.4 mph - N/A   Clear
2:35 AM 46.4 °F 42.4 °F 23.0 °F 40% 30.05 in 10.0 mi NW 8.1 mph - N/A   Clear
2:55 AM 44.6 °F 39.2 °F 23.0 °F 43% 30.05 in 10.0 mi North 10.4 mph 24.2 mph N/A   Clear
3:15 AM 42.8 °F 40.1 °F 23.0 °F 46% 30.06 in 10.0 mi NNW 4.6 mph - N/A   Clear
3:35 AM 41.0 °F 34.3 °F 21.2 °F 45% 30.05 in 10.0 mi NNW 11.5 mph 16.1 mph N/A   Clear
3:55 AM 41.0 °F 34.3 °F 21.2 °F 45% 30.06 in 10.0 mi North 11.5 mph - N/A   Clear
4:15 AM 41.0 °F 32.8 °F 19.4 °F 42% 30.06 in 10.0 mi North 16.1 mph 19.6 mph N/A   Clear
4:35 AM 39.2 °F 30.8 °F 19.4 °F 45% 30.06 in 10.0 mi North 15.0 mph 18.4 mph N/A   Clear
4:55 AM 39.2 °F 31.6 °F 19.4 °F 45% 30.07 in 10.0 mi NNW 12.7 mph - N/A   Clear
5:15 AM 39.2 °F 30.5 °F 19.4 °F 45% 30.06 in 10.0 mi North 16.1 mph - N/A   Clear
5:35 AM 39.2 °F 30.5 °F 19.4 °F 45% 30.08 in 10.0 mi NNW 16.1 mph 21.9 mph N/A   Clear
5:55 AM 37.4 °F 29.3 °F 19.4 °F 48% 30.08 in 10.0 mi NNW 12.7 mph 17.3 mph N/A   Clear
6:15 AM 37.4 °F 28.9 °F 19.4 °F 48% 30.08 in 10.0 mi NNW 13.8 mph 21.9 mph N/A   Clear
6:35 AM 37.4 °F 27.8 °F 19.4 °F 48% 30.09 in 10.0 mi NNW 17.3 mph 21.9 mph N/A   Clear
6:55 AM 37.4 °F 28.9 °F 19.4 °F 48% 30.09 in 10.0 mi NNW 13.8 mph - N/A   Clear
7:15 AM 37.4 °F 31.4 °F 21.2 °F 52% 30.10 in 10.0 mi North 8.1 mph 20.7 mph N/A   Clear
7:35 AM 39.2 °F 32.0 °F 21.2 °F 49% 30.11 in 10.0 mi North 11.5 mph 17.3 mph N/A   Clear
7:55 AM 39.2 °F 32.5 °F 23.0 °F 52% 30.13 in 10.0 mi NNW 10.4 mph 16.1 mph N/A   Clear
8:15 AM 39.2 °F 31.2 °F 21.2 °F 49% 30.14 in 10.0 mi NNW 13.8 mph 18.4 mph N/A   Clear
8:35 AM 41.0 °F 33.1 °F 23.0 °F 49% 30.14 in 10.0 mi North 15.0 mph 24.2 mph N/A   Partly Cloudy
8:55 AM 41.0 °F 32.8 °F 23.0 °F 49% 30.15 in 10.0 mi North 16.1 mph 20.7 mph N/A   Scattered Clouds
9:15 AM 42.8 °F 35.4 °F 23.0 °F 46% 30.16 in 10.0 mi NNW 15.0 mph 20.7 mph N/A   Partly Cloudy
9:35 AM 44.6 °F 37.8 °F 23.0 °F 43% 30.17 in 10.0 mi NNW 15.0 mph 21.9 mph N/A   Clear
9:55 AM 44.6 °F 38.1 °F 23.0 °F 43% 30.17 in 10.0 mi NNW 13.8 mph 19.6 mph N/A   Scattered Clouds
10:15 AM 44.6 °F 38.1 °F 23.0 °F 43% 30.17 in 10.0 mi NNW 13.8 mph 18.4 mph N/A   Overcast
10:35 AM 46.4 °F 40.7 °F 23.0 °F 40% 30.18 in 10.0 mi NNE 12.7 mph - N/A   Overcast
10:55 AM 46.4 °F 43.5 °F 21.2 °F 37% 30.18 in 10.0 mi East 5.8 mph - N/A   Overcast
11:15 AM 50.0 °F - 21.2 °F 32% 30.19 in 10.0 mi Calm Calm - N/A   Overcast
11:35 AM 48.2 °F - 21.2 °F 34% 30.19 in 10.0 mi East 10.4 mph - N/A   Overcast
11:55 AM 50.0 °F - 21.2 °F 32% 30.19 in 10.0 mi NNE 5.8 mph 17.3 mph N/A   Overcast
12:15 PM 50.0 °F - 21.2 °F 32% 30.19 in 10.0 mi East 11.5 mph - N/A   Overcast
12:35 PM 51.8 °F - 21.2 °F 30% 30.18 in 10.0 mi East 10.4 mph 19.6 mph N/A   Overcast
12:55 PM 51.8 °F - 21.2 °F 30% 30.17 in 10.0 mi NE 6.9 mph 18.4 mph N/A   Overcast
1:15 PM 51.8 °F - 19.4 °F 28% 30.17 in 10.0 mi ESE 10.4 mph - N/A   Mostly Cloudy
1:35 PM 53.6 °F - 17.6 °F 24% 30.16 in 10.0 mi SE 4.6 mph 16.1 mph N/A   Mostly Cloudy
1:55 PM 55.4 °F - 15.8 °F 21% 30.16 in 10.0 mi East 11.5 mph 20.7 mph N/A   Partly Cloudy
2:15 PM 55.4 °F - 12.2 °F 18% 30.16 in 10.0 mi East 11.5 mph 21.9 mph N/A   Clear
2:35 PM 55.4 °F - 12.2 °F 18% 30.17 in 10.0 mi East 12.7 mph 20.7 mph N/A   Clear
2:55 PM 55.4 °F - 14.0 °F 20% 30.16 in 10.0 mi East 11.5 mph 20.7 mph N/A   Clear
3:15 PM 55.4 °F - 14.0 °F 20% 30.16 in 10.0 mi East 16.1 mph 21.9 mph N/A   Clear
3:35 PM 55.4 °F - 15.8 °F 21% 30.16 in 10.0 mi ENE 12.7 mph 20.7 mph N/A   Clear
3:55 PM 57.2 °F - 12.2 °F 17% 30.16 in 9.0 mi East 15.0 mph 18.4 mph N/A   Clear
4:15 PM 55.4 °F - 10.4 °F 17% 30.16 in 10.0 mi ENE 13.8 mph 20.7 mph N/A   Clear
4:35 PM 55.4 °F - 12.2 °F 18% 30.16 in 10.0 mi East 12.7 mph 21.9 mph N/A   Clear
4:55 PM 55.4 °F - 12.2 °F 18% 30.16 in 10.0 mi East 16.1 mph 20.7 mph N/A   Clear
5:15 PM 55.4 °F - 12.2 °F 18% 30.16 in 10.0 mi East 16.1 mph 21.9 mph N/A   Clear
5:35 PM 53.6 °F - 14.0 °F 21% 30.17 in 10.0 mi East 11.5 mph - N/A   Clear
5:55 PM 53.6 °F - 10.4 °F 18% 30.17 in 10.0 mi ENE 12.7 mph - N/A   Clear
6:15 PM 50.0 °F - 14.0 °F 24% 30.18 in 10.0 mi ENE 15.0 mph - N/A   Clear
6:35 PM 50.0 °F - 15.8 °F 26% 30.18 in 10.0 mi ENE 16.1 mph - N/A   Clear
6:55 PM 50.0 °F - 14.0 °F 24% 30.19 in 10.0 mi ENE 13.8 mph - N/A   Clear
7:15 PM 48.2 °F - 14.0 °F 25% 30.20 in 10.0 mi NE 12.7 mph - N/A   Clear
7:35 PM 48.2 °F - 14.0 °F 25% 30.21 in 10.0 mi NE 8.1 mph - N/A   Clear
7:55 PM 48.2 °F - 14.0 °F 25% 30.22 in 10.0 mi NE 10.4 mph 17.3 mph N/A   Clear
8:15 PM 46.4 °F 41.1 °F 14.0 °F 27% 30.22 in 10.0 mi NE 11.5 mph - N/A   Clear
8:35 PM 46.4 °F 40.7 °F 14.0 °F 27% 30.23 in 10.0 mi ENE 12.7 mph 18.4 mph N/A   Clear
9:35 PM 46.4 °F 44.3 °F 15.8 °F 29% 30.25 in 10.0 mi South 4.6 mph - N/A   Clear
9:55 PM 44.6 °F 40.7 °F 14.0 °F 29% 30.25 in 10.0 mi South 6.9 mph - N/A   Clear
10:15 PM 44.6 °F - 14.0 °F 29% 30.26 in 10.0 mi Calm Calm - N/A   Clear
10:35 PM 42.8 °F 41.1 °F 15.8 °F 34% 30.26 in 10.0 mi NE 3.5 mph - N/A   Clear
10:55 PM 41.0 °F 38.0 °F 15.8 °F 36% 30.27 in 10.0 mi ENE 4.6 mph - N/A   Clear
11:15 PM 44.6 °F 40.7 °F 17.6 °F 34% 30.27 in 10.0 mi NE 6.9 mph 16.1 mph N/A   Clear
11:35 PM 44.6 °F 38.4 °F 17.6 °F 34% 30.28 in 10.0 mi NE 12.7 mph - N/A   Clear
11:55 PM 42.8 °F 37.0 °F 17.6 °F 36% 30.28 in 10.0 mi NE 10.4 mph - N/A   Clear